Tracking 28126 objects as of 1-Oct-2023
HD Live streaming from Space Station
objects crossing your sky now

STARLINK-4546

Track STARLINK-4546 now!
10-day predictions
STARLINK-4546 is classified as:


NORAD ID: 53422
Int'l Code: 2022-097AL
Perigee: 545.8 km
Apogee: 547.9 km
Inclination: 53.2 °
Period: 95.4 minutes
Semi major axis: 6917 km
RCS: Unknown
Launch date: August 10, 2022
Source: United States (US)
Launch site: AIR FORCE EASTERN TEST RANGE (AFETR)
Your satellite tracking list
Your tracking list is empty




NASA's NSSDC Master Catalog

Two Line Element Set (TLE):
1 53422U 22097AL  23274.39890680  .00001850  00000-0  13430-3 0  9995
2 53422  53.2165 150.7902 0001557  82.7710 277.3459 15.08846617 64246
Source of the keplerian elements: AFSPC